Other Surface Observations
Issued by NWS

Current Version | Previous Version | Text Only | Print | Product List | Glossary On
Versions: 1 2 3 4 5 6 7 8 9 10 11 12 13 14 15 16 17 18 19 20 21 22 23 24 25 26 27 28 29 30 31 32 33 34 35 36 37 38 39 40 41 42 43 44 45 46 47 48 49 50
608
SXUS52 KTAE 041918
OSOTAE
OSOTAE
North Florida/South Alabama/Southwest Georgia Weather Roundup
National Weather Service Tallahassee Florida
200 PM EST SUN DEC 04 2016

Note: "fair" indicates few or no clouds below 12,000 feet with no
significant weather and/or obstructions to visibility.

!FLZ017-115-028-034-025-042000
...North Florida...

CITY           SKY/WX    TMP DP  RH WIND       PRES   REMARKS
TALLAHASSEE    CLOUDY    73  63  70 S10       30.00F
APALACHICOLA   CLOUDY    74  68  81 SE10      29.98F
PERRY          CLOUDY    77  62  58 S12       30.02F
CROSS CITY     SUNNY     82  61  47 S14       30.01F
JACKSONVILLE   PTSUNNY   78  60  53 SE14      30.02F
$$

!FLZ112-006-005-002-011-042000
...Florida Panhandle...

CITY           SKY/WX    TMP DP  RH WIND       PRES   REMARKS
MARIANNA       CLOUDY    74  65  73 S13       29.95F
BONIFAY        CLOUDY    75  67  76 S10G21    29.93F
PANAMA CITY NW CLOUDY    74  67  78 SE15      29.94F
TYNDALL AFB    CLOUDY    75  68  78 S18       29.94F
TYND DRONE APT NOT AVBL
DE FUNIAK SPR  NOT AVBL
EGLIN AFB      CLOUDY    74  69  84 S14       29.90F
DESTIN         CLOUDY    75  71  87 SE15      29.90F
HURLBURT       PTSUNNY   77  70  78 S18       29.87F
CRESTVIEW      TSTM      70  67  90 W10G21    29.92F FOG
PENSACOLA      LGT RAIN  74  71  91 S16       29.88F FOG
$$

!ALZ063-066-042000
...South Alabama...

CITY           SKY/WX    TMP DP  RH WIND       PRES   REMARKS
DOTHAN         CLOUDY    65  59  81 E5        29.99F
OZARK CAIRNS   LGT RAIN  63  59  88 NE8       29.93F
FT RUCKER HELI LGT RAIN  62  59  90 E3        29.94F
RUCKER HELI 3  NOT AVBL
RUCKER HELI 2  LGT RAIN  64  58  80 E7        29.95F
FLORALA APT    NOT AVBL
ANDALUSIA      LGT RAIN  66  62  87 SE6       29.92F FOG
TROY           HVY RAIN  58  58 100 E5        29.96F VSB 1
EUFALA         LGT RAIN  57  54  89 E6        29.98F
MOBILE         LGT RAIN  71  71 100 S6        29.88F FOG
$$

!GAZ120>161-042000
...Southwest and South Central Georgia...

CITY           SKY/WX    TMP DP  RH WIND       PRES   REMARKS
THOMASVILLE    CLOUDY    75  64  69 S16       30.01F
BAINBRIDGE     CLOUDY    77  63  61 S9        29.98F
MOODY AFB      CLOUDY    74  58  57 S8        30.00F
VALDOSTA       CLOUDY    76  60  57 S9        30.01F
MOULTRIE       CLOUDY    73  59  60 S7        30.00F
BLAKELY        CLOUDY    70  57  64 CALM      29.98F
ALBANY         CLOUDY    69  57  65 SE6       30.02F
TIFTON         CLOUDY    67  57  71 E5        30.02F
FITZGERALD     NOT AVBL
CORDELE        NOT AVBL
AMERICUS       CLOUDY    54  52  94 NE6       30.05F
HOMERVILLE     CLOUDY    75  61  60 S9        30.03F
$$

!GMZ750-755-770-775-042000
...Coastal and Buoy Obs...

STATION/POSITION TIME  TEMP    WIND        PRES    VSBY  WAVE
                       AIR SEA DIR/SP/G                  HT/PER
                 (UTC) (F)     (DEG/KT/KT) (MB)    (MI)  (FT/S)
KEATON BEACH     1900   69     170/ 15/ 17 1015.8F
CEDAR KEY        1900   71     160/  5/  5 1016.5F
C TOWER          1900   72     180/ 18/ 19 1015.6F
APALACHICOLA BUO 1850   75 75  160/ 17/ 21 1015.0F         5/ 6
PANAMA CITY BUOY 1850   76 76              1013.9F         6/ 7
MOBILE BUOY      1900   77 76  190/ 14/ 17 1011.4
ORANGE BCH AL BU 1850   74 69  180/ 17/ 21 1011.2F         7/ 7
$$




USA.gov is the U.S. government's official web portal to all federal, state and local government web resources and services.